Location: *
(43.9900°N, 3.4811°E)
Time: 20:24:21
(UTC+00:00)

Cosmos 1048 Rocket - Pass Details

Date: 25 August 2019
Orbit: 744 x 791 km, 74.0° (Epoch: 23 September)

Event Time Altitude Azimuth Distance (km) Brightness Sun altitude
Rises 21:07:58 0° 340° (NNW) 3,195 8.3 -24.4°
Reaches altitude 10° 21:10:20 10° 343° (NNW) 2,270 7.3 -24.7°
Maximum altitude 21:15:28 73° 68° (ENE) 785 3.9 -25.3°
Enters shadow 21:15:34 73° 79° (E) 786 3.8 -25.3°
